パンスターズ彗星

C/2024 W1 ( PanSTARRS )

English version
Home page
Updated on December 28, 2024

---------------------------------------------------------------------

・ プロフィール

発見日 2024年11月22日
発見光度 20.7等
発見者 Pan-STARRS 1 telescope (Haleakala)

・ 軌道要素

Epoch 2024 Oct. 17.0 TT = JDT 2460600.5                                         
T 2025 Mar. 19.30043 TT                                 Veres                   
q   2.5594232            (2000.0)            P               Q                  
z  +0.0229903      Peri.  256.80298     -0.23624914     +0.61474784             
 +/-0.0051772      Node   310.72647     +0.47433479     -0.60293035             
e   0.9411580      Incl.   83.20514     -0.84805239     -0.50848803             
From 20 observations 2024 Nov. 22-Dec. 6, mean residual 0".3.                   

・ 光度変化

        m1 = 12.0 + 5 logΔ + 10.0 log r

---------------------------------------------------------------------

軌道要素はM.P.E.C. 2024-X279に掲載されたものです。
光度グラフはComet for Windowsで作成したものです。

---------------------------------------------------------------------

Copyright(C) Seiichi Yoshida (comet@aerith.net). All rights reserved.